Tiempo cada hora Al-Ladikija

Hoy, 28 Julio, Miércoles

Tiempo Temperatura Precipitaciones Viento Presión Humedad
00:00 +28°C° 0 mm 3 mps 752 mmHg 72%
01:00 +28°C° 0 mm 3 mps 752 mmHg 69%
02:00 +28°C° 0 mm 3 mps 752 mmHg 67%
03:00 +28°C° 0 mm 3 mps 751 mmHg 68%
04:00 +28°C° 0 mm 3 mps 751 mmHg 68%
05:00 +28°C° 0 mm 2 mps 751 mmHg 69%
06:00 +29°C° 0 mm 2 mps 751 mmHg 63%
07:00 +31°C° 0 mm 2 mps 751 mmHg 56%
08:00 +34°C° 0 mm 2 mps 751 mmHg 50%
09:00 +35°C° 0 mm 3 mps 751 mmHg 45%
10:00 +36°C° 0 mm 3 mps 751 mmHg 40%
11:00 +37°C° 0 mm 4 mps 751 mmHg 36%
12:00 +38°C° 0 mm 4 mps 751 mmHg 33%
13:00 +38°C° 0 mm 4 mps 751 mmHg 30%
14:00 +40°C° 0 mm 4 mps 750 mmHg 28%
15:00 +38°C° 0 mm 4 mps 750 mmHg 30%
16:00 +37°C° 0 mm 4 mps 750 mmHg 33%
17:00 +36°C° 0 mm 4 mps 750 mmHg 35%
18:00 +34°C° 0 mm 4 mps 750 mmHg 43%
19:00 +31°C° 0 mm 3 mps 750 mmHg 51%
20:00 +29°C° 0 mm 2 mps 751 mmHg 59%
21:00 +29°C° 0 mm 2 mps 750 mmHg 60%
22:00 +29°C° 0 mm 2 mps 750 mmHg 61%
23:00 +28°C° 0 mm 2 mps 750 mmHg 61%

Mañana, 29 Julio, Jueves

Tiempo Temperatura Precipitaciones Viento Presión Humedad
00:00 +28°C° 0 mm 2 mps 750 mmHg 62%
01:00 +28°C° 0 mm 2 mps 750 mmHg 63%
02:00 +28°C° 0 mm 3 mps 750 mmHg 64%
03:00 +28°C° 0 mm 3 mps 750 mmHg 65%
04:00 +27°C° 0 mm 2 mps 750 mmHg 67%
05:00 +27°C° 0 mm 2 mps 750 mmHg 68%
06:00 +29°C° 0 mm 2 mps 750 mmHg 63%
07:00 +31°C° 0 mm 3 mps 750 mmHg 57%
08:00 +34°C° 0 mm 3 mps 750 mmHg 52%
09:00 +35°C° 0 mm 3 mps 750 mmHg 49%
10:00 +36°C° 0 mm 3 mps 750 mmHg 46%
11:00 +37°C° 0 mm 4 mps 750 mmHg 43%
12:00 +37°C° 0 mm 4 mps 750 mmHg 43%
13:00 +37°C° 0 mm 4 mps 750 mmHg 42%
14:00 +37°C° 0 mm 4 mps 749 mmHg 42%
15:00 +36°C° 0 mm 4 mps 749 mmHg 44%
16:00 +35°C° 0 mm 4 mps 749 mmHg 47%
17:00 +35°C° 0 mm 4 mps 749 mmHg 50%
18:00 +33°C° 0 mm 4 mps 749 mmHg 59%
19:00 +30°C° 0 mm 4 mps 749 mmHg 68%
20:00 +29°C° 0 mm 4 mps 749 mmHg 78%
21:00 +28°C° 0 mm 4 mps 749 mmHg 79%
22:00 +28°C° 0 mm 4 mps 749 mmHg 81%
23:00 +28°C° 0 mm 3 mps 749 mmHg 82%

Pasado mañana, 30 Julio, Viernes

Tiempo Temperatura Precipitaciones Viento Presión Humedad
00:00 +27°C° 0 mm 3 mps 749 mmHg 83%
01:00 +27°C° 0 mm 3 mps 749 mmHg 84%
02:00 +27°C° 0 mm 3 mps 749 mmHg 85%
03:00 +27°C° 0 mm 3 mps 749 mmHg 84%
04:00 +27°C° 0 mm 3 mps 749 mmHg 84%
05:00 +27°C° 0 mm 3 mps 749 mmHg 83%
06:00 +29°C° 0 mm 3 mps 749 mmHg 73%
07:00 +30°C° 0 mm 3 mps 750 mmHg 63%
08:00 +33°C° 0 mm 3 mps 750 mmHg 53%
09:00 +34°C° 0 mm 4 mps 750 mmHg 50%
10:00 +36°C° 0 mm 4 mps 750 mmHg 46%
11:00 +37°C° 0 mm 4 mps 750 mmHg 42%
12:00 +37°C° 0 mm 5 mps 750 mmHg 42%
13:00 +37°C° 0 mm 5 mps 749 mmHg 41%
14:00 +37°C° 0 mm 5 mps 749 mmHg 40%
15:00 +36°C° 0 mm 5 mps 749 mmHg 42%
16:00 +36°C° 0 mm 5 mps 749 mmHg 44%
17:00 +35°C° 0 mm 5 mps 749 mmHg 45%
18:00 +33°C° 0 mm 5 mps 749 mmHg 55%
19:00 +30°C° 0 mm 5 mps 749 mmHg 64%
20:00 +28°C° 0 mm 4 mps 749 mmHg 74%
21:00 +28°C° 0 mm 4 mps 749 mmHg 76%
22:00 +28°C° 0 mm 3 mps 749 mmHg 78%
23:00 +27°C° 0 mm 3 mps 749 mmHg 79%

31 Julio, Sábado

Tiempo Temperatura Precipitaciones Viento Presión Humedad
00:00 +27°C° 0 mm 3 mps 749 mmHg 77%
01:00 +27°C° 0 mm 3 mps 749 mmHg 74%
02:00 +27°C° 0 mm 3 mps 749 mmHg 72%
03:00 +27°C° 0 mm 3 mps 749 mmHg 72%
04:00 +27°C° 0 mm 3 mps 749 mmHg 71%
05:00 +27°C° 0 mm 3 mps 749 mmHg 71%
06:00 +29°C° 0 mm 3 mps 749 mmHg 63%
07:00 +31°C° 0 mm 3 mps 749 mmHg 56%
08:00 +34°C° 0 mm 4 mps 749 mmHg 48%
09:00 +35°C° 0 mm 4 mps 749 mmHg 46%
10:00 +36°C° 0 mm 4 mps 749 mmHg 44%
11:00 +37°C° 0 mm 5 mps 749 mmHg 42%
12:00 +37°C° 0 mm 5 mps 749 mmHg 42%
13:00 +37°C° 0 mm 5 mps 749 mmHg 42%
14:00 +37°C° 0 mm 5 mps 749 mmHg 42%
15:00 +36°C° 0 mm 5 mps 749 mmHg 44%
16:00 +36°C° 0 mm 5 mps 749 mmHg 46%
17:00 +35°C° 0 mm 5 mps 749 mmHg 49%
18:00 +33°C° 0 mm 5 mps 749 mmHg 57%
19:00 +30°C° 0 mm 5 mps 749 mmHg 66%
20:00 +29°C° 0 mm 5 mps 750 mmHg 74%
21:00 +29°C° 0 mm 5 mps 750 mmHg 75%
22:00 +28°C° 0 mm 4 mps 750 mmHg 75%
23:00 +28°C° 0 mm 4 mps 750 mmHg 76%

1 Agosto, Domingo

Tiempo Temperatura Precipitaciones Viento Presión Humedad
00:00 +28°C° 0 mm 4 mps 750 mmHg 73%
01:00 +28°C° 0 mm 3 mps 749 mmHg 71%
02:00 +28°C° 0 mm 3 mps 749 mmHg 69%
03:00 +28°C° 0 mm 3 mps 749 mmHg 69%
04:00 +27°C° 0 mm 3 mps 749 mmHg 70%
05:00 +27°C° 0 mm 3 mps 749 mmHg 71%
06:00 +29°C° 0 mm 3 mps 749 mmHg 64%
07:00 +32°C° 0 mm 4 mps 750 mmHg 57%
08:00 +34°C° 0 mm 4 mps 750 mmHg 51%
09:00 +35°C° 0 mm 4 mps 750 mmHg 47%
10:00 +36°C° 0 mm 5 mps 750 mmHg 44%
11:00 +37°C° 0 mm 5 mps 750 mmHg 41%
12:00 +37°C° 0 mm 5 mps 750 mmHg 43%
13:00 +37°C° 0 mm 5 mps 750 mmHg 44%
14:00 +37°C° 0 mm 5 mps 749 mmHg 45%
15:00 +36°C° 0 mm 5 mps 749 mmHg 48%
16:00 +35°C° 0 mm 5 mps 749 mmHg 50%
17:00 +35°C° 0 mm 6 mps 749 mmHg 53%
18:00 +33°C° 0 mm 5 mps 750 mmHg 61%
19:00 +32°C° 0 mm 5 mps 750 mmHg 70%
20:00 +29°C° 0 mm 5 mps 750 mmHg 79%
21:00 +29°C° 0 mm 4 mps 750 mmHg 77%
22:00 +29°C° 0 mm 4 mps 750 mmHg 76%
23:00 +28°C° 0 mm 4 mps 750 mmHg 74%

2 Agosto, Lunes

Tiempo Temperatura Precipitaciones Viento Presión Humedad
00:00 +28°C° 0 mm 3 mps 750 mmHg 70%
01:00 +28°C° 0 mm 3 mps 750 mmHg 67%
02:00 +28°C° 0 mm 3 mps 750 mmHg 63%
03:00 +28°C° 0 mm 3 mps 750 mmHg 66%
04:00 +28°C° 0 mm 3 mps 750 mmHg 68%
05:00 +28°C° 0 mm 2 mps 750 mmHg 70%
06:00 +30°C° 0 mm 3 mps 750 mmHg 63%
07:00 +33°C° 0 mm 3 mps 750 mmHg 56%
08:00 +35°C° 0 mm 4 mps 750 mmHg 49%
09:00 +36°C° 0 mm 4 mps 750 mmHg 47%
10:00 +37°C° 0 mm 5 mps 751 mmHg 44%
11:00 +39°C° 0 mm 5 mps 751 mmHg 42%
12:00 +37°C° 0 mm 5 mps 750 mmHg 44%
13:00 +38°C° 0 mm 6 mps 750 mmHg 46%
14:00 +38°C° 0 mm 6 mps 750 mmHg 48%
15:00 +36°C° 0 mm 6 mps 750 mmHg 50%
16:00 +36°C° 0 mm 6 mps 750 mmHg 52%
17:00 +35°C° 0 mm 6 mps 750 mmHg 54%
18:00 +33°C° 0 mm 5 mps 750 mmHg 63%
19:00 +32°C° 0 mm 5 mps 751 mmHg 71%
20:00 +29°C° 0 mm 5 mps 751 mmHg 80%
21:00 +29°C° 0 mm 4 mps 751 mmHg 77%
22:00 +29°C° 0 mm 4 mps 751 mmHg 73%
23:00 +29°C° 0 mm 3 mps 751 mmHg 70%
Mostrar más

Necesitamos Su Consentimiento

Meteoprog y nuestros Proveedores de Servicios pueden almacenar y acceder a sus datos personales como cookies, identificadores de dispositivo u otras tecnologías similares de su dispositivo y procesar dichos datos para personalizar contenido y anuncios, además de ofrecer funciones de redes sociales y analizar el tráfico.

  • Almacenar y/o acceder a información en su dispositivo

    Se puede almacenar o acceder a cookies, identificadores de dispositivo u otra información de su dispositivo para los fines anteriormente indicados.

  • Anuncios y contenido personalizados, medición de anuncios y contenido, percepciones del público, y desarrollo de productos

    Los anuncios y el contenido pueden personalizarse en base a su perfil. Se pueden añadir más datos para personalizar mejor los anuncios y contenidos. Se puede medir el rendimiento de los anuncios y contenidos. Se puede obtener la percepción sobre el público que ha visto los anuncios y contenidos. Dichos datos pueden usarse para desarrollar o mejorar la experiencia del usuario, sistemas y software.

Al hacer clic en ‘Estoy De Acuerdo’ usted permitirá el uso de las cookies, identificadores de dispositivo, balizas web u otras tecnologías similares indicadas. Su configuración puede cambiarse desde el navegador de su dispositivo.

Para ciertos fines, los intereses legítimos pueden ser considerados por encima del consentimiento. Puede leer más sobre ello en nuestra Política de Privacidad y Cookies.